| time (UTC) | temp F | wind direction | speed MPH | gust MPH | rain 1hr in | rain 24hr in | rain mn in | humidity % | barometer mb |
| 20260904013540 | 68 | 234 | 6.0 | 10.0 | 0.00 | 0.00 | 0.00 | ||
| 20260904013138 | 68 | 233 | 6.0 | 9.0 | 0.00 | 0.00 | 0.00 | ||
| 20260904012737 | 68 | 230 | 6.0 | 10.0 | 0.00 | 0.00 | 0.00 | ||
| 20260904012335 | 68 | 237 | 5.0 | 9.0 | 0.00 | 0.00 | 0.00 | ||
| 20260904011933 | 68 | 230 | 6.0 | 9.0 | 0.00 | 0.00 | 0.00 | ||
| 20260904011525 | 68 | 242 | 5.0 | 12.0 | 0.00 | 0.00 | 0.00 | ||
| 20260904011123 | 69 | 238 | 5.0 | 9.0 | 0.00 | 0.00 | 0.00 | ||
| 20260904010721 | 69 | 227 | 5.0 | 8.0 | 0.00 | 0.00 | 0.00 | ||
| 20260904010320 | 69 | 223 | 6.0 | 10.0 | 0.00 | 0.00 | 0.00 | ||
| 20260904005918 | 69 | 229 | 5.0 | 9.0 | 0.00 | 0.00 | 0.00 | ||
| 20260904005517 | 69 | 229 | 7.0 | 13.0 | 0.00 | 0.00 | 0.00 | ||
| 20260904005114 | 69 | 231 | 7.0 | 9.0 | 0.00 | 0.00 | 0.00 | ||
| 20260904004713 | 69 | 241 | 5.0 | 8.0 | 0.00 | 0.00 | 0.00 | ||
| 20260904004312 | 69 | 219 | 5.0 | 9.0 | 0.00 | 0.00 | 0.00 | ||
| 20260904003910 | 69 | 232 | 6.0 | 11.0 | 0.00 | 0.00 | 0.00 | ||
| 20260904003501 | 69 | 220 | 6.0 | 11.0 | 0.00 | 0.00 | 0.00 | ||
| 20260904003059 | 69 | 230 | 5.0 | 9.0 | 0.00 | 0.00 | 0.00 | ||
| 20260904002658 | 69 | 231 | 5.0 | 10.0 | 0.00 | 0.00 | 0.00 | ||
| 20260904002257 | 69 | 213 | 6.0 | 11.0 | 0.00 | 0.00 | 0.00 | ||
| 20260904001855 | 68 | 211 | 5.0 | 13.0 | 0.00 | 0.00 | 0.00 | ||
| 20260904001453 | 69 | 215 | 6.0 | 9.0 | 0.00 | 0.00 | 0.00 | ||
| 20260904001052 | 69 | 226 | 6.0 | 9.0 | 0.00 | 0.00 | 0.00 | ||
| 20260904000650 | 69 | 235 | 5.0 | 8.0 | 0.00 | 0.00 | 0.00 | ||
| 20260904000249 | 69 | 232 | 6.0 | 9.0 | 0.00 | 0.00 | 0.00 | ||
| 20260903235846 | 69 | 233 | 5.0 | 8.0 | 0.00 | 0.00 | 0.00 | ||
| 20260903235437 | 69 | 233 | 5.0 | 9.0 | 0.00 | 0.00 | 0.00 | ||
| 20260903235036 | 69 | 223 | 6.0 | 9.0 | 0.00 | 0.00 | 0.00 | ||
| 20260903234231 | 69 | 214 | 5.0 | 10.0 | 0.00 | 0.00 | 0.00 | ||
| 20260903233830 | 70 | 205 | 6.0 | 12.0 | 0.00 | 0.00 | 0.00 | ||
| 20260903233027 | 70 | 219 | 4.0 | 9.0 | 0.00 | 0.00 | 0.00 | ||
| 20260903232625 | 70 | 220 | 5.0 | 10.0 | 0.00 | 0.00 | 0.00 | ||
| 20260903232224 | 69 | 223 | 5.0 | 8.0 | 0.00 | 0.00 | 0.00 | ||
| 20260903231822 | 69 | 226 | 7.0 | 11.0 | 0.00 | 0.00 | 0.00 | ||
| 20260903231414 | 69 | 234 | 7.0 | 10.0 | 0.00 | 0.00 | 0.00 | ||
| 20260903231012 | 70 | 229 | 6.0 | 9.0 | 0.00 | 0.00 | 0.00 | ||
| 20260903230610 | 69 | 239 | 6.0 | 9.0 | 0.00 | 0.00 | 0.00 | ||
| 20260903230209 | 69 | 229 | 6.0 | 10.0 | 0.00 | 0.00 | 0.00 | ||
| 20260903225807 | 69 | 225 | 5.0 | 8.0 | 0.00 | 0.00 | 0.00 | ||
| 20260903225406 | 69 | 230 | 6.0 | 8.0 | 0.00 | 0.00 | 0.00 | ||
| 20260903225003 | 69 | 229 | 5.0 | 9.0 | 0.00 | 0.00 | 0.00 | ||
| 20260903224602 | 70 | 223 | 3.0 | 8.0 | 0.00 | 0.00 | 0.00 | ||
| 20260903224201 | 69 | 215 | 4.0 | 10.0 | 0.00 | 0.00 | 0.00 | ||
| 20260903223759 | 68 | 188 | 2.0 | 5.0 | 0.00 | 0.00 | 0.00 | ||
| 20260903223350 | 69 | 180 | 2.0 | 4.0 | 0.00 | 0.00 | 0.00 | ||
| 20260903222948 | 68 | 180 | 2.0 | 4.0 | 0.00 | 0.00 | 0.00 | ||
| 20260903222547 | 69 | 188 | 2.0 | 5.0 | 0.00 | 0.00 | 0.00 | ||
| 20260903222146 | 67 | 202 | 1.0 | 2.0 | 0.00 | 0.00 | 0.00 | ||
| 20260903221743 | 67 | 186 | 3.0 | 4.0 | 0.00 | 0.00 | 0.00 | ||
| 20260903221342 | 66 | 168 | 2.0 | 4.0 | 0.00 | 0.00 | 0.00 | ||
| 20260903220940 | 66 | 164 | 2.0 | 3.0 | 0.00 | 0.00 | 0.00 | ||
| 20260903220539 | 66 | 158 | 1.0 | 2.0 | 0.00 | 0.00 | 0.00 | ||
| 20260903220138 | 66 | 157 | 1.0 | 2.0 | 0.00 | 0.00 | 0.00 | ||
| 20260903215327 | 67 | 141 | 2.0 | 3.0 | 0.00 | 0.00 | 0.00 | ||
| 20260903214926 | 67 | 135 | 1.0 | 3.0 | 0.00 | 0.00 | 0.00 | ||
| 20260903214525 | 66 | 139 | 2.0 | 4.0 | 0.00 | 0.00 | 0.00 | ||
| 20260903214123 | 66 | 157 | 3.0 | 4.0 | 0.00 | 0.00 | 0.00 | ||
| 20260903213721 | 66 | 157 | 1.0 | 4.0 | 0.00 | 0.00 | 0.00 | ||
| 20260903213320 | 67 | 157 | 1.0 | 3.0 | 0.00 | 0.00 | 0.00 | ||
| 20260903212918 | 67 | 169 | 3.0 | 5.0 | 0.00 | 0.00 | 0.00 | ||
| 20260903212516 | 66 | 186 | 1.0 | 4.0 | 0.00 | 0.00 | 0.00 | ||
| 20260903212115 | 66 | 180 | 1.0 | 2.0 | 0.00 | 0.00 | 0.00 | ||
| 20260903211713 | 66 | 180 | 1.0 | 2.0 | 0.00 | 0.00 | 0.00 | ||
| 20260903211305 | 66 | 180 | 1.0 | 3.0 | 0.00 | 0.00 | 0.00 | ||
| 20260903210902 | 65 | 180 | 1.0 | 3.0 | 0.00 | 0.00 | 0.00 | ||
| 20260903210501 | 65 | 180 | 1.0 | 2.0 | 0.00 | 0.00 | 0.00 | ||
| 20260903210100 | 66 | 180 | 2.0 | 4.0 | 0.00 | 0.00 | 0.00 | ||
| 20260903205658 | 65 | 180 | 2.0 | 2.0 | 0.00 | 0.00 | 0.00 | ||
| 20260903205257 | 66 | 180 | 2.0 | 4.0 | 0.00 | 0.00 | 0.00 | ||
| 20260903204854 | 66 | 180 | 2.0 | 3.0 | 0.00 | 0.00 | 0.00 | ||
| 20260903204453 | 66 | 180 | 3.0 | 4.0 | 0.00 | 0.00 | 0.00 | ||
| 20260903203650 | 68 | 157 | 2.0 | 4.0 | 0.00 | 0.00 | 0.00 | ||
| 20260903203241 | 68 | 157 | 3.0 | 5.0 | 0.00 | 0.00 | 0.00 | ||
| 20260903202839 | 68 | 180 | 3.0 | 6.0 | 0.00 | 0.00 | 0.00 | ||
| 20260903202438 | 68 | 171 | 3.0 | 5.0 | 0.00 | 0.00 | 0.00 | ||
| 20260903202037 | 68 | 180 | 3.0 | 4.0 | 0.00 | 0.00 | 0.00 | ||
| 20260903201635 | 69 | 180 | 2.0 | 3.0 | 0.00 | 0.00 | 0.00 | ||
| 20260903201234 | 69 | 180 | 3.0 | 4.0 | 0.00 | 0.00 | 0.00 | ||
| 20260903200832 | 70 | 183 | 2.0 | 4.0 | 0.00 | 0.00 | 0.00 | ||
| 20260903200431 | 70 | 202 | 2.0 | 4.0 | 0.00 | 0.00 | 0.00 | ||
| 20260903195627 | 68 | 180 | 3.0 | 4.0 | 0.00 | 0.00 | 0.00 | ||
| 20260903195219 | 69 | 180 | 3.0 | 4.0 | 0.00 | 0.00 | 0.00 | ||
| 20260903194817 | 69 | 185 | 3.0 | 4.0 | 0.00 | 0.00 | 0.00 | ||
| 20260903194416 | 68 | 172 | 2.0 | 4.0 | 0.00 | 0.00 | 0.00 | ||
| 20260903194014 | 68 | 157 | 3.0 | 4.0 | 0.00 | 0.00 | 0.00 | ||
| 20260903193612 | 67 | 157 | 2.0 | 3.0 | 0.00 | 0.00 | 0.00 | ||
| 20260903193211 | 68 | 161 | 2.0 | 4.0 | 0.00 | 0.00 | 0.00 | ||
| 20260903192809 | 69 | 186 | 2.0 | 4.0 | 0.00 | 0.00 | 0.00 | ||
| 20260903192407 | 69 | 202 | 2.0 | 2.0 | 0.00 | 0.00 | 0.00 | ||
| 20260903192006 | 68 | 202 | 3.0 | 4.0 | 0.00 | 0.00 | 0.00 | ||
| 20260903191156 | 68 | 202 | 2.0 | 3.0 | 0.00 | 0.00 | 0.00 | ||
| 20260903190753 | 67 | 202 | 1.0 | 2.0 | 0.00 | 0.00 | 0.00 | ||
| 20260903190352 | 68 | 202 | 1.0 | 2.0 | 0.00 | 0.00 | 0.00 | ||
| 20260903185951 | 68 | 202 | 1.0 | 2.0 | 0.00 | 0.00 | 0.00 | ||
| 20260903185550 | 69 | 202 | 1.0 | 3.0 | 0.00 | 0.00 | 0.00 | ||
| 20260903185147 | 69 | 242 | 2.0 | 3.0 | 0.00 | 0.00 | 0.00 | ||
| 20260903184746 | 70 | 248 | 2.0 | 3.0 | 0.00 | 0.00 | 0.00 | ||
| 20260903184345 | 71 | 248 | 1.0 | 3.0 | 0.00 | 0.00 | 0.00 | ||
| 20260903183944 | 72 | 248 | 1.0 | 2.0 | 0.00 | 0.00 | 0.00 | ||
| 20260903183542 | 72 | 248 | 1.0 | 2.0 | 0.00 | 0.00 | 0.00 | ||
| 20260903183133 | 72 | 248 | 1.0 | 2.0 | 0.00 | 0.00 | 0.00 | ||
| 20260903182731 | 71 | 248 | 0.0 | 1.0 | 0.00 | 0.00 | 0.00 | ||
| 20260903182330 | 72 | 248 | 1.0 | 2.0 | 0.00 | 0.00 | 0.00 | ||
| 20260903181929 | 72 | 248 | 1.0 | 3.0 | 0.00 | 0.00 | 0.00 | ||
| 20260903181526 | 72 | 267 | 1.0 | 2.0 | 0.00 | 0.00 | 0.00 | ||
| 20260903181125 | 71 | 270 | 1.0 | 2.0 | 0.00 | 0.00 | 0.00 | ||
| 20260903180723 | 71 | 270 | 1.0 | 2.0 | 0.00 | 0.00 | 0.00 | ||
| 20260903180322 | 70 | 270 | 1.0 | 3.0 | 0.00 | 0.00 | 0.00 | ||
| 20260903175920 | 69 | 270 | 2.0 | 3.0 | 0.00 | 0.00 | 0.00 | ||
| 20260903175518 | 69 | 270 | 3.0 | 4.0 | 0.00 | 0.00 | 0.00 | ||
| 20260903175110 | 71 | 266 | 3.0 | 5.0 | 0.00 | 0.00 | 0.00 | ||
| 20260903174708 | 73 | 248 | 2.0 | 2.0 | 0.00 | 0.00 | 0.00 | ||
| 20260903174306 | 73 | 268 | 2.0 | 3.0 | 0.00 | 0.00 | 0.00 | ||
| 20260903173905 | 71 | 270 | 0.0 | 1.0 | 0.00 | 0.00 | 0.00 | ||
| 20260903173503 | 72 | 270 | 0.0 | 2.0 | 0.00 | 0.00 | 0.00 | ||
| 20260903173103 | 74 | 270 | 1.0 | 2.0 | 0.00 | 0.00 | 0.00 | ||
| 20260903172701 | 72 | 270 | 0.0 | 0.0 | 0.00 | 0.00 | 0.00 | ||
| 20260903172258 | 73 | 270 | 0.0 | 1.0 | 0.00 | 0.00 | 0.00 | ||
| 20260903171858 | 74 | 270 | 0.0 | 1.0 | 0.00 | 0.00 | 0.00 | ||
| 20260903171456 | 74 | 270 | 1.0 | 1.0 | 0.00 | 0.00 | 0.00 | ||
| 20260903171048 | 73 | 270 | 0.0 | 1.0 | 0.00 | 0.00 | 0.00 | ||
| 20260903170244 | 72 | 270 | 1.0 | 2.0 | 0.00 | 0.00 | 0.00 | ||
| 20260903165843 | 72 | 270 | 1.0 | 2.0 | 0.00 | 0.00 | 0.00 | ||
| 20260903165441 | 73 | 270 | 0.0 | 2.0 | 0.00 | 0.00 | 0.00 | ||
| 20260903165039 | 74 | 270 | 0.0 | 0.0 | 0.00 | 0.00 | 0.00 | ||
| 20260903164637 | 74 | 270 | 1.0 | 2.0 | 0.00 | 0.00 | 0.00 | ||
| 20260903164236 | 75 | 270 | 2.0 | 2.0 | 0.00 | 0.00 | 0.00 | ||
| 20260903163835 | 78 | 270 | 1.0 | 2.0 | 0.00 | 0.00 | 0.00 | ||
| 20260903163432 | 76 | 270 | 1.0 | 2.0 | 0.00 | 0.00 | 0.00 | ||
| 20260903163024 | 75 | 283 | 2.0 | 3.0 | 0.00 | 0.00 | 0.00 | ||
| 20260903162622 | 78 | 292 | 1.0 | 2.0 | 0.00 | 0.00 | 0.00 | ||
| 20260903162221 | 81 | 292 | 0.0 | 0.0 | 0.00 | 0.00 | 0.00 | ||
| 20260903161820 | 80 | 292 | 0.0 | 1.0 | 0.00 | 0.00 | 0.00 | ||
| 20260903161417 | 76 | 292 | 1.0 | 1.0 | 0.00 | 0.00 | 0.00 | ||
| 20260903161016 | 76 | 292 | 0.0 | 0.0 | 0.00 | 0.00 | 0.00 | ||
| 20260903160614 | 77 | 292 | 0.0 | 2.0 | 0.00 | 0.00 | 0.00 | ||
| 20260903160213 | 75 | 292 | 0.0 | 1.0 | 0.00 | 0.00 | 0.00 | ||
| 20260903155811 | 74 | 292 | 0.0 | 1.0 | 0.00 | 0.00 | 0.00 | ||
| 20260903155410 | 74 | 292 | 0.0 | 2.0 | 0.00 | 0.00 | 0.00 | ||
| 20260903155001 | 74 | 292 | 1.0 | 2.0 | 0.00 | 0.00 | 0.00 | ||
| 20260903154600 | 74 | 292 | 0.0 | 1.0 | 0.00 | 0.00 | 0.00 | ||
| 20260903154157 | 74 | 292 | 0.0 | 0.0 | 0.00 | 0.00 | 0.00 | ||
| 20260903153757 | 74 | 292 | 0.0 | 2.0 | 0.00 | 0.00 | 0.00 | ||
| 20260903153355 | 74 | 292 | 1.0 | 2.0 | 0.00 | 0.00 | 0.00 | ||
| 20260903152954 | 74 | 292 | 2.0 | 3.0 | 0.00 | 0.00 | 0.00 | ||
| 20260903152551 | 74 | 292 | 1.0 | 4.0 | 0.00 | 0.00 | 0.00 | ||
| 20260903152150 | 74 | 305 | 2.0 | 4.0 | 0.00 | 0.00 | 0.00 | ||
| 20260903151749 | 74 | 299 | 3.0 | 4.0 | 0.00 | 0.00 | 0.00 | ||
| 20260903151347 | 75 | 292 | 2.0 | 2.0 | 0.00 | 0.00 | 0.00 | ||
| 20260903150939 | 74 | 270 | 2.0 | 3.0 | 0.00 | 0.00 | 0.00 | ||
| 20260903150536 | 74 | 270 | 2.0 | 3.0 | 0.00 | 0.00 | 0.00 | ||
| 20260903150135 | 75 | 270 | 3.0 | 5.0 | 0.00 | 0.00 | 0.00 | ||
| 20260903145734 | 76 | 315 | 0.0 | 2.0 | 0.00 | 0.00 | 0.00 | ||
| 20260903145332 | 75 | 315 | 1.0 | 2.0 | 0.00 | 0.00 | 0.00 | ||
| 20260903144930 | 75 | 315 | 1.0 | 4.0 | 0.00 | 0.00 | 0.00 | ||
| 20260903144528 | 74 | 312 | 1.0 | 3.0 | 0.00 | 0.00 | 0.00 | ||
| 20260903144127 | 74 | 305 | 3.0 | 5.0 | 0.00 | 0.00 | 0.00 | ||
| 20260903143726 | 74 | 315 | 2.0 | 3.0 | 0.00 | 0.00 | 0.00 | ||
| 20260903143323 | 74 | 270 | 1.0 | 2.0 | 0.00 | 0.00 | 0.00 | ||
| 20260903142915 | 74 | 271 | 2.0 | 3.0 | 0.00 | 0.00 | 0.00 | ||
| 20260903142513 | 73 | 288 | 4.0 | 6.0 | 0.00 | 0.00 | 0.00 | ||
| 20260903142113 | 75 | 313 | 2.0 | 4.0 | 0.00 | 0.00 | 0.00 | ||
| 20260903141710 | 74 | 289 | 2.0 | 4.0 | 0.00 | 0.00 | 0.00 | ||
| 20260903141309 | 74 | 278 | 5.0 | 8.0 | 0.00 | 0.00 | 0.00 | ||
| 20260903140908 | 75 | 290 | 4.0 | 8.0 | 0.00 | 0.00 | 0.00 | ||
| 20260903140506 | 74 | 298 | 4.0 | 8.0 | 0.00 | 0.00 | 0.00 | ||
| 20260903140105 | 75 | 279 | 6.0 | 11.0 | 0.00 | 0.00 | 0.00 | ||
| 20260903135703 | 75 | 316 | 4.0 | 8.0 | 0.00 | 0.00 | 0.00 | ||
| 20260903135301 | 75 | 0 | 3.0 | 4.0 | 0.00 | 0.00 | 0.00 | ||
| 20260903134853 | 76 | 300 | 3.0 | 9.0 | 0.00 | 0.00 | 0.00 | ||
| 20260903134451 | 75 | 287 | 4.0 | 6.0 | 0.00 | 0.00 | 0.00 | ||
| 20260903134049 | 76 | 304 | 3.0 | 6.0 | 0.00 | 0.00 | 0.00 | ||
| 20260903133648 | 75 | 282 | 2.0 | 3.0 | 0.00 | 0.00 | 0.00 | ||
| 20260903133246 | 75 | 255 | 2.0 | 4.0 | 0.00 | 0.00 | 0.00 | ||
| 20260903132845 | 76 | 291 | 2.0 | 4.0 | 0.00 | 0.00 | 0.00 | ||
| 20260903132442 | 76 | 276 | 1.0 | 3.0 | 0.00 | 0.00 | 0.00 | ||
| 20260903132040 | 76 | 276 | 2.0 | 4.0 | 0.00 | 0.00 | 0.00 | ||
| 20260903131639 | 74 | 292 | 3.0 | 4.0 | 0.00 | 0.00 | 0.00 | ||
| 20260903131237 | 74 | 324 | 2.0 | 3.0 | 0.00 | 0.00 | 0.00 | ||
| 20260903130828 | 75 | 279 | 4.0 | 5.0 | 0.00 | 0.00 | 0.00 | ||
| 20260903130426 | 75 | 284 | 3.0 | 6.0 | 0.00 | 0.00 | 0.00 | ||
| 20260903130025 | 75 | 314 | 2.0 | 3.0 | 0.00 | 0.00 | 0.00 | ||
| 20260903125624 | 74 | 321 | 2.0 | 5.0 | 0.00 | 0.00 | 0.00 | ||
| 20260903125222 | 73 | 338 | 0.0 | 2.0 | 0.00 | 0.00 | 0.00 | ||
| 20260903124820 | 73 | 335 | 2.0 | 6.0 | 0.00 | 0.00 | 0.00 | ||
| 20260903124418 | 73 | 314 | 2.0 | 4.0 | 0.00 | 0.00 | 0.00 | ||
| 20260903124017 | 73 | 323 | 2.0 | 5.0 | 0.00 | 0.00 | 0.00 | ||
| 20260903123616 | 73 | 310 | 3.0 | 5.0 | 0.00 | 0.00 | 0.00 | ||
| 20260903123213 | 72 | 328 | 2.0 | 4.0 | 0.00 | 0.00 | 0.00 | ||
| 20260903122805 | 72 | 341 | 3.0 | 5.0 | 0.00 | 0.00 | 0.00 | ||
| 20260903122403 | 73 | 315 | 2.0 | 3.0 | 0.00 | 0.00 | 0.00 | ||
| 20260903122002 | 72 | 312 | 2.0 | 3.0 | 0.00 | 0.00 | 0.00 | ||
| 20260903121600 | 72 | 290 | 4.0 | 6.0 | 0.00 | 0.00 | 0.00 | ||
| 20260903121158 | 72 | 300 | 4.0 | 7.0 | 0.00 | 0.00 | 0.00 | ||
| 20260903120757 | 73 | 315 | 3.0 | 6.0 | 0.00 | 0.00 | 0.00 | ||
| 20260903120355 | 73 | 305 | 3.0 | 6.0 | 0.00 | 0.00 | 0.00 | ||
| 20260903115953 | 73 | 301 | 6.0 | 9.0 | 0.00 | 0.00 | 0.00 | ||
| 20260903115552 | 73 | 332 | 3.0 | 4.0 | 0.00 | 0.00 | 0.00 | ||
| 20260903115150 | 73 | 306 | 4.0 | 8.0 | 0.00 | 0.00 | 0.00 | ||
| 20260903114743 | 73 | 322 | 4.0 | 9.0 | 0.00 | 0.00 | 0.00 | ||
| 20260903114341 | 73 | 303 | 7.0 | 9.0 | 0.00 | 0.00 | 0.00 | ||
| 20260903113939 | 74 | 295 | 7.0 | 12.0 | 0.00 | 0.00 | 0.00 | ||
| 20260903112734 | 76 | 278 | 6.0 | 9.0 | 0.00 | 0.00 | 0.00 | ||
| 20260903112331 | 77 | 268 | 7.0 | 10.0 | 0.00 | 0.00 | 0.00 | ||
| 20260903111930 | 78 | 261 | 7.0 | 10.0 | 0.00 | 0.00 | 0.00 | ||
| 20260903111529 | 78 | 244 | 9.0 | 11.0 | 0.00 | 0.00 | 0.00 | ||
| 20260903111127 | 78 | 209 | 9.0 | 14.0 | 0.00 | 0.00 | 0.00 | ||
| 20260903110718 | 77 | 232 | 8.0 | 14.0 | 0.00 | 0.00 | 0.00 | ||
| 20260903110316 | 76 | 260 | 5.0 | 7.0 | 0.00 | 0.00 | 0.00 | ||
| 20260903105915 | 77 | 228 | 6.0 | 9.0 | 0.00 | 0.00 | 0.00 | ||
| 20260903105514 | 77 | 252 | 7.0 | 10.0 | 0.00 | 0.00 | 0.00 | ||
| 20260903105111 | 77 | 213 | 7.0 | 14.0 | 0.00 | 0.00 | 0.00 | ||
| 20260903104710 | 77 | 232 | 3.0 | 7.0 | 0.00 | 0.00 | 0.00 | ||
| 20260903104308 | 75 | 188 | 4.0 | 8.0 | 0.00 | 0.00 | 0.00 | ||
| 20260903103506 | 77 | 216 | 4.0 | 6.0 | 0.00 | 0.00 | 0.00 | ||
| 20260903103103 | 78 | 224 | 3.0 | 5.0 | 0.00 | 0.00 | 0.00 | ||
| 20260903102655 | 76 | 199 | 4.0 | 9.0 | 0.00 | 0.00 | 0.00 | ||
| 20260903102254 | 76 | 231 | 2.0 | 5.0 | 0.00 | 0.00 | 0.00 | ||
| 20260903101853 | 75 | 228 | 3.0 | 5.0 | 0.00 | 0.00 | 0.00 | ||
| 20260903101450 | 75 | 217 | 5.0 | 9.0 | 0.00 | 0.00 | 0.00 | ||
| 20260903101049 | 76 | 213 | 6.0 | 9.0 | 0.00 | 0.00 | 0.00 | ||
| 20260903100648 | 75 | 230 | 4.0 | 6.0 | 0.00 | 0.00 | 0.00 | ||
| 20260903095844 | 76 | 260 | 3.0 | 7.0 | 0.00 | 0.00 | 0.00 | ||
| 20260903095443 | 75 | 237 | 3.0 | 8.0 | 0.00 | 0.00 | 0.00 | ||
| 20260903095041 | 75 | 202 | 3.0 | 6.0 | 0.00 | 0.00 | 0.00 | ||
| 20260903094633 | 75 | 263 | 4.0 | 6.0 | 0.00 | 0.00 | 0.00 | ||
| 20260903094230 | 74 | 315 | 1.0 | 3.0 | 0.00 | 0.00 | 0.00 | ||
| 20260903093829 | 74 | 311 | 2.0 | 5.0 | 0.00 | 0.00 | 0.00 | ||
| 20260903093428 | 75 | 264 | 3.0 | 6.0 | 0.00 | 0.00 | 0.00 | ||
| 20260903093026 | 75 | 263 | 4.0 | 6.0 | 0.00 | 0.00 | 0.00 | ||
| 20260903092625 | 74 | 263 | 4.0 | 7.0 | 0.00 | 0.00 | 0.00 | ||
| 20260903092222 | 74 | 267 | 6.0 | 9.0 | 0.00 | 0.00 | 0.00 | ||
| 20260903091821 | 73 | 275 | 4.0 | 6.0 | 0.00 | 0.00 | 0.00 | ||
| 20260903091420 | 74 | 270 | 2.0 | 6.0 | 0.00 | 0.00 | 0.00 | ||
| 20260903091019 | 74 | 263 | 3.0 | 5.0 | 0.00 | 0.00 | 0.00 | ||
| 20260903090609 | 74 | 254 | 3.0 | 8.0 | 0.00 | 0.00 | 0.00 | ||
| 20260903090207 | 73 | 260 | 6.0 | 9.0 | 0.00 | 0.00 | 0.00 | ||
| 20260903085806 | 74 | 220 | 7.0 | 10.0 | 0.00 | 0.00 | 0.00 | ||
| 20260903085405 | 74 | 217 | 5.0 | 8.0 | 0.00 | 0.00 | 0.00 | ||
| 20260903085002 | 73 | 238 | 4.0 | 8.0 | 0.00 | 0.00 | 0.00 | ||
| 20260903084601 | 74 | 221 | 5.0 | 9.0 | 0.00 | 0.00 | 0.00 | ||
| 20260903084200 | 74 | 220 | 3.0 | 4.0 | 0.00 | 0.00 | 0.00 | ||
| 20260903083759 | 74 | 183 | 2.0 | 4.0 | 0.00 | 0.00 | 0.00 | ||
| 20260903083357 | 74 | 195 | 3.0 | 6.0 | 0.00 | 0.00 | 0.00 | ||
| 20260903082955 | 73 | 218 | 4.0 | 6.0 | 0.00 | 0.00 | 0.00 | ||
| 20260903082547 | 73 | 206 | 4.0 | 6.0 | 0.00 | 0.00 | 0.00 | ||
| 20260903082145 | 74 | 202 | 2.0 | 4.0 | 0.00 | 0.00 | 0.00 | ||
| 20260903081744 | 73 | 217 | 2.0 | 5.0 | 0.00 | 0.00 | 0.00 | ||
| 20260903081342 | 73 | 194 | 2.0 | 5.0 | 0.00 | 0.00 | 0.00 | ||
| 20260903080940 | 72 | 157 | 2.0 | 5.0 | 0.00 | 0.00 | 0.00 | ||
| 20260903080539 | 72 | 157 | 1.0 | 3.0 | 0.00 | 0.00 | 0.00 | ||
| 20260903080137 | 72 | 157 | 2.0 | 4.0 | 0.00 | 0.00 | 0.00 | ||
| 20260903075735 | 73 | 157 | 1.0 | 2.0 | 0.00 | 0.00 | 0.00 | ||
| 20260903075334 | 73 | 157 | 2.0 | 4.0 | 0.00 | 0.00 | 0.00 | ||
| 20260903074932 | 72 | 157 | 3.0 | 4.0 | 0.00 | 0.00 | 0.00 | ||
| 20260903074524 | 73 | 157 | 2.0 | 3.0 | 0.00 | 0.00 | 0.00 | ||
| 20260903074121 | 72 | 157 | 2.0 | 4.0 | 0.00 | 0.00 | 0.00 | ||
| 20260903073720 | 72 | 128 | 3.0 | 4.0 | 0.00 | 0.00 | 0.00 | ||
| 20260903073319 | 72 | 135 | 3.0 | 5.0 | 0.00 | 0.00 | 0.00 | ||
| 20260903072917 | 72 | 135 | 3.0 | 6.0 | 0.00 | 0.00 | 0.00 | ||
| 20260903072515 | 71 | 135 | 2.0 | 4.0 | 0.00 | 0.00 | 0.00 | ||
| 20260903072113 | 71 | 144 | 2.0 | 4.0 | 0.00 | 0.00 | 0.00 | ||
| 20260903071712 | 71 | 158 | 2.0 | 4.0 | 0.00 | 0.00 | 0.00 | ||
| 20260903071311 | 71 | 170 | 4.0 | 6.0 | 0.00 | 0.00 | 0.00 | ||
| 20260903070500 | 70 | 132 | 4.0 | 6.0 | 0.00 | 0.00 | 0.00 | ||
| 20260903070058 | 70 | 135 | 2.0 | 4.0 | 0.00 | 0.00 | 0.00 | ||
| 20260903065657 | 70 | 135 | 4.0 | 6.0 | 0.00 | 0.00 | 0.00 | ||
| 20260903065256 | 70 | 129 | 3.0 | 6.0 | 0.00 | 0.00 | 0.00 | ||
| 20260903064853 | 71 | 132 | 5.0 | 8.0 | 0.00 | 0.00 | 0.00 | ||
| 20260903064452 | 71 | 135 | 6.0 | 9.0 | 0.00 | 0.00 | 0.00 | ||
| 20260903064050 | 71 | 139 | 6.0 | 8.0 | 0.00 | 0.00 | 0.00 | ||
| 20260903063247 | 70 | 149 | 4.0 | 8.0 | 0.00 | 0.00 | 0.00 | ||
| 20260903062845 | 68 | 146 | 6.0 | 9.0 | 0.00 | 0.00 | 0.00 | ||
| 20260903062437 | 69 | 137 | 5.0 | 9.0 | 0.00 | 0.00 | 0.00 | ||
| 20260903062035 | 69 | 129 | 3.0 | 6.0 | 0.00 | 0.00 | 0.00 | ||
| 20260903061633 | 68 | 134 | 4.0 | 6.0 | 0.00 | 0.00 | 0.00 | ||
| 20260903061232 | 68 | 139 | 5.0 | 8.0 | 0.00 | 0.00 | 0.00 | ||
| 20260903060830 | 68 | 152 | 5.0 | 7.0 | 0.00 | 0.00 | 0.00 | ||
| 20260903060429 | 68 | 140 | 3.0 | 5.0 | 0.00 | 0.00 | 0.00 | ||
| 20260903060028 | 67 | 146 | 4.0 | 7.0 | 0.00 | 0.00 | 0.00 | ||
| 20260903055625 | 65 | 133 | 3.0 | 5.0 | 0.00 | 0.00 | 0.00 | ||
| 20260903055224 | 66 | 131 | 3.0 | 5.0 | 0.00 | 0.00 | 0.00 | ||
| 20260903054823 | 66 | 141 | 4.0 | 8.0 | 0.00 | 0.00 | 0.00 | ||
| 20260903054702 | 66 | 154 | 4.0 | 8.0 | 0.00 | 0.00 | 0.00 | ||
| 20260903054415 | 66 | 154 | 4.0 | 8.0 | 0.00 | 0.00 | 0.00 | ||
| 20260903054012 | 66 | 157 | 4.0 | 6.0 | 0.00 | 0.00 | 0.00 | ||
| 20260903053611 | 66 | 148 | 5.0 | 8.0 | 0.00 | 0.00 | 0.00 | ||
| 20260903053210 | 66 | 134 | 4.0 | 6.0 | 0.00 | 0.00 | 0.00 | ||
| 20260903052808 | 65 | 131 | 3.0 | 6.0 | 0.00 | 0.00 | 0.00 | ||
| 20260903052406 | 65 | 139 | 1.0 | 4.0 | 0.00 | 0.00 | 0.00 | ||
| 20260903052004 | 64 | 157 | 3.0 | 5.0 | 0.00 | 0.00 | 0.00 | ||
| 20260903051602 | 63 | 139 | 2.0 | 5.0 | 0.00 | 0.00 | 0.00 | ||
| 20260903051201 | 63 | 135 | 3.0 | 6.0 | 0.00 | 0.00 | 0.00 | ||
| 20260903050758 | 64 | 154 | 3.0 | 6.0 | 0.00 | 0.00 | 0.00 | ||
| 20260903050350 | 63 | 141 | 3.0 | 5.0 | 0.00 | 0.00 | 0.00 | ||
| 20260903045949 | 64 | 143 | 3.0 | 6.0 | 0.00 | 0.00 | 0.00 | ||
| 20260903045548 | 63 | 133 | 3.0 | 7.0 | 0.00 | 0.00 | 0.00 | ||
| 20260903045147 | 64 | 137 | 3.0 | 6.0 | 0.00 | 0.00 | 0.00 | ||
| 20260903044744 | 63 | 143 | 4.0 | 5.0 | 0.00 | 0.00 | 0.00 | ||
| 20260903044343 | 62 | 148 | 3.0 | 7.0 | 0.00 | 0.00 | 0.00 | ||
| 20260903043941 | 62 | 157 | 4.0 | 6.0 | 0.00 | 0.00 | 0.00 | ||
| 20260903043540 | 61 | 147 | 3.0 | 5.0 | 0.00 | 0.00 | 0.00 | ||
| 20260903043137 | 61 | 135 | 2.0 | 3.0 | 0.00 | 0.00 | 0.00 | ||
| 20260903042736 | 61 | 135 | 2.0 | 4.0 | 0.00 | 0.00 | 0.00 | ||
| 20260903042328 | 61 | 135 | 2.0 | 5.0 | 0.00 | 0.00 | 0.00 | ||
| 20260903041926 | 59 | 111 | 0.0 | 1.0 | 0.00 | 0.00 | 0.00 | ||
| 20260903041524 | 59 | 111 | 1.0 | 2.0 | 0.00 | 0.00 | 0.00 | ||
| 20260903041123 | 60 | 111 | 2.0 | 3.0 | 0.00 | 0.00 | 0.00 | ||
| 20260903040721 | 59 | 111 | 1.0 | 2.0 | 0.00 | 0.00 | 0.00 | ||
| 20260903040320 | 60 | 111 | 1.0 | 2.0 | 0.00 | 0.00 | 0.00 | ||
| 20260903035917 | 62 | 129 | 2.0 | 3.0 | 0.00 | 0.00 | 0.00 | ||
| 20260903035516 | 61 | 135 | 1.0 | 3.0 | 0.00 | 0.00 | 0.00 | ||
| 20260903035115 | 62 | 135 | 3.0 | 5.0 | 0.00 | 0.00 | 0.00 | ||
| 20260903034713 | 61 | 151 | 4.0 | 5.0 | 0.00 | 0.00 | 0.00 | ||
| 20260903034305 | 61 | 135 | 2.0 | 3.0 | 0.00 | 0.00 | 0.00 | ||
| 20260903033902 | 63 | 136 | 3.0 | 5.0 | 0.00 | 0.00 | 0.00 | ||
| 20260903033501 | 62 | 145 | 4.0 | 5.0 | 0.00 | 0.00 | 0.00 | ||
| 20260903033100 | 62 | 153 | 3.0 | 6.0 | 0.00 | 0.00 | 0.00 | ||
| 20260903032658 | 61 | 148 | 2.0 | 4.0 | 0.00 | 0.00 | 0.00 | ||
| 20260903032256 | 63 | 140 | 3.0 | 6.0 | 0.00 | 0.00 | 0.00 | ||
| 20260903031854 | 62 | 132 | 2.0 | 4.0 | 0.00 | 0.00 | 0.00 | ||
| 20260903031453 | 62 | 136 | 4.0 | 6.0 | 0.00 | 0.00 | 0.00 | ||
| 20260903031052 | 63 | 136 | 4.0 | 7.0 | 0.00 | 0.00 | 0.00 | ||
| 20260903030649 | 63 | 152 | 5.0 | 7.0 | 0.00 | 0.00 | 0.00 | ||
| 20260903030241 | 62 | 135 | 2.0 | 4.0 | 0.00 | 0.00 | 0.00 | ||
| 20260903025839 | 61 | 151 | 2.0 | 3.0 | 0.00 | 0.00 | 0.00 | ||
| 20260903025438 | 61 | 157 | 3.0 | 5.0 | 0.00 | 0.00 | 0.00 | ||
| 20260903025036 | 62 | 157 | 2.0 | 4.0 | 0.00 | 0.00 | 0.00 | ||
| 20260903024635 | 63 | 141 | 3.0 | 5.0 | 0.00 | 0.00 | 0.00 | ||
| 20260903024234 | 63 | 152 | 3.0 | 5.0 | 0.00 | 0.00 | 0.00 | ||
| 20260903023832 | 64 | 143 | 4.0 | 6.0 | 0.00 | 0.00 | 0.00 | ||
| 20260903023431 | 62 | 152 | 4.0 | 9.0 | 0.00 | 0.00 | 0.00 | ||
| 20260903023029 | 62 | 151 | 3.0 | 6.0 | 0.00 | 0.00 | 0.00 | ||
| 20260903022627 | 61 | 135 | 2.0 | 4.0 | 0.00 | 0.00 | 0.00 | ||
| 20260903022219 | 61 | 135 | 2.0 | 4.0 | 0.00 | 0.00 | 0.00 | ||
| 20260903021817 | 61 | 135 | 1.0 | 3.0 | 0.00 | 0.00 | 0.00 | ||
| 20260903021415 | 62 | 135 | 1.0 | 2.0 | 0.00 | 0.00 | 0.00 | ||
| 20260903020612 | 63 | 111 | 2.0 | 3.0 | 0.00 | 0.00 | 0.00 | ||
| 20260903020211 | 62 | 111 | 3.0 | 3.0 | 0.00 | 0.00 | 0.00 | ||
| 20260903015808 | 62 | 135 | 2.0 | 4.0 | 0.00 | 0.00 | 0.00 | ||
| 20260903015407 | 62 | 139 | 3.0 | 5.0 | 0.00 | 0.00 | 0.00 | ||
| 20260903015006 | 62 | 135 | 2.0 | 2.0 | 0.00 | 0.00 | 0.00 | ||
| 20260903014604 | 61 | 151 | 2.0 | 3.0 | 0.00 | 0.00 | 0.00 | ||
| 20260903014155 | 62 | 180 | 1.0 | 3.0 | 0.00 | 0.00 | 0.00 | ||
| 20260903013753 | 63 | 180 | 2.0 | 3.0 | 0.00 | 0.00 | 0.00 |